Bend, OR

4:24 AM PDT on October 18, 2017 (GMT -0700)
Bend Municipal

Weather History for KBDN - October, 2012

Change the Weather History Date:

Sunday, October 28, 2012

  Actual Average (KRDM) Record (KRDM)
Temperature  
Mean Temperature 56 °F -  
Max Temperature 62 °F 53 °F 85 °F (1968)
Min Temperature 50 °F 26 °F 10 °F (1971)
Degree Days  
Heating Degree Days 9    
Growing Degree Days 6 (Base 50)    
Moisture  
Dew Point 42 °F    
Average Humidity 60    
Maximum Humidity 72    
Minimum Humidity 51    
Precipitation  
Precipitation 0.01 in - - ()
Sea Level Pressure  
Sea Level Pressure 30.01 in    
Wind  
Wind Speed 15 mph (SW)    
Max Wind Speed 21 mph    
Max Gust Speed 30 mph    
Visibility 10 miles    
Events Rain    
Averages and records for this station are not official NWS values.
T = Trace of Precipitation, MM = Missing Value Source: NWS Daily Summary

Daily Weather History Graph

Daily Weather History Graph

Search for Another Location

Airport or City:

Trip Planner

Search our weather history database for the weather conditions in past years. The results will help you decide how hot, cold, wet, or windy it might be!

Date:

Astronomy

Oct. 28, 2012 Rise Set
Actual Time 7:36 AM PDT 5:59 PM PDT
Civil Twilight 7:07 AM PDT 6:29 PM PDT
Nautical Twilight 6:33 AM PDT 7:03 PM PDT
Astronomical Twilight 5:59 AM PDT 7:36 PM PDT
Moon 5:20 PM PDT (10/28) 6:34 AM PDT (10/28)
Length of Visible Light 11h 22m
Length of Day
10h 22m
Waxing Gibbous, 99% of the Moon is Illuminated
Oct 28
Waxing Gibbous
Oct 29
Full
Nov 6
Last Quarter
Nov 13
New
Nov 20
First Quarter

Hourly Weather History & Observations

Time (PDT) Temp. Dew Point Humidity Pressure Visibility Wind Dir Wind Speed Gust Speed Precip Events Conditions
12:15 AM 53.6 °F 37.4 °F 54% 30.03 in 10.0 mi SSW 18.4 mph 24.2 mph N/A   Scattered Clouds
12:55 AM 53.6 °F 37.4 °F 54% 30.03 in 10.0 mi SSW 17.3 mph 24.2 mph N/A   Mostly Cloudy
1:15 AM 53.6 °F 39.2 °F 58% 30.03 in 10.0 mi SSW 17.3 mph 26.5 mph N/A   Mostly Cloudy
1:35 AM 53.6 °F 37.4 °F 54% 30.02 in 10.0 mi SSW 18.4 mph 27.6 mph N/A   Scattered Clouds
1:55 AM 53.6 °F 39.2 °F 58% 30.03 in 10.0 mi SW 20.7 mph 29.9 mph N/A   Scattered Clouds
2:15 AM 53.6 °F 39.2 °F 58% 30.03 in 10.0 mi SW 17.3 mph 26.5 mph N/A   Scattered Clouds
2:35 AM 53.6 °F 39.2 °F 58% 30.03 in 10.0 mi SW 19.6 mph 26.5 mph N/A Rain Light Rain
2:55 AM 51.8 °F 39.2 °F 62% 30.04 in 10.0 mi SW 16.1 mph 25.3 mph N/A   Partly Cloudy
3:15 AM 53.6 °F 39.2 °F 58% 30.03 in 10.0 mi SW 18.4 mph 25.3 mph N/A   Partly Cloudy
3:35 AM 51.8 °F 39.2 °F 62% 30.04 in 10.0 mi SW 18.4 mph 23.0 mph N/A   Partly Cloudy
3:55 AM 51.8 °F 39.2 °F 62% 30.03 in 10.0 mi SW 19.6 mph 25.3 mph N/A   Clear
4:15 AM 51.8 °F 39.2 °F 62% 30.03 in 10.0 mi SW 15.0 mph 24.2 mph N/A   Partly Cloudy
4:35 AM 51.8 °F 39.2 °F 62% 30.03 in 10.0 mi SW 17.3 mph 21.9 mph N/A   Partly Cloudy
4:55 AM 53.6 °F 39.2 °F 58% 30.02 in 10.0 mi SW 18.4 mph 24.2 mph N/A   Scattered Clouds
5:15 AM 51.8 °F 39.2 °F 62% 30.03 in 10.0 mi SW 15.0 mph 21.9 mph N/A   Partly Cloudy
5:35 AM 51.8 °F 39.2 °F 62% 30.02 in 10.0 mi SSW 15.0 mph 20.7 mph N/A   Partly Cloudy
5:55 AM 51.8 °F 39.2 °F 62% 30.02 in 10.0 mi SSW 15.0 mph 19.6 mph N/A   Partly Cloudy
6:15 AM 51.8 °F 41.0 °F 67% 30.01 in 10.0 mi SW 17.3 mph 21.9 mph N/A   Clear
6:35 AM 51.8 °F 41.0 °F 67% 30.01 in 10.0 mi SW 15.0 mph 20.7 mph N/A   Clear
6:55 AM 50.0 °F 41.0 °F 71% 30.02 in 8.0 mi SW 15.0 mph 21.9 mph N/A Rain Light Rain
7:35 AM 51.8 °F 41.0 °F 67% 30.03 in 10.0 mi SW 12.7 mph 21.9 mph N/A   Clear
7:55 AM 51.8 °F 41.0 °F 67% 30.03 in 10.0 mi SW 12.7 mph - N/A   Clear
8:15 AM 51.8 °F 41.0 °F 67% 30.03 in 6.0 mi SW 12.7 mph - N/A Rain Light Rain
8:35 AM 51.8 °F 41.0 °F 67% 30.03 in 10.0 mi SW 8.1 mph - N/A   Partly Cloudy
8:55 AM 50.0 °F 41.0 °F 71% 30.03 in 10.0 mi SW 12.7 mph - N/A   Partly Cloudy
9:15 AM 51.8 °F 41.0 °F 67% 30.04 in 10.0 mi WSW 6.9 mph - N/A   Partly Cloudy
9:35 AM 53.6 °F 41.0 °F 62% 30.03 in 10.0 mi SW 9.2 mph - N/A   Partly Cloudy
9:55 AM 53.6 °F 41.0 °F 62% 30.02 in 10.0 mi SW 11.5 mph 16.1 mph N/A   Partly Cloudy
10:35 AM 55.4 °F 42.8 °F 63% 30.02 in 10.0 mi WSW 10.4 mph - N/A   Partly Cloudy
10:55 AM 55.4 °F 42.8 °F 63% 30.02 in 10.0 mi SW 10.4 mph - N/A   Partly Cloudy
11:15 AM 55.4 °F 42.8 °F 63% 30.02 in 10.0 mi SW 10.4 mph - N/A Rain Light Rain
11:35 AM 55.4 °F 42.8 °F 63% 30.02 in 10.0 mi WSW 9.2 mph - N/A Rain Light Rain
11:55 AM 55.4 °F 44.6 °F 67% 30.03 in 7.0 mi West 6.9 mph - 0.01 in Rain Light Rain
12:15 PM 55.4 °F 46.4 °F 72% 30.03 in 10.0 mi West 11.5 mph - N/A Rain Light Rain
12:35 PM 57.2 °F 46.4 °F 67% 30.02 in 10.0 mi WSW 10.4 mph - N/A   Clear
12:55 PM 57.2 °F 44.6 °F 63% 30.01 in 10.0 mi SW 9.2 mph - N/A   Clear
1:15 PM 59.0 °F 44.6 °F 59% 30.01 in 10.0 mi SW 11.5 mph 18.4 mph N/A   Scattered Clouds
1:35 PM 59.0 °F 44.6 °F 59% 30.00 in 10.0 mi SW 12.7 mph - N/A   Clear
1:55 PM 59.0 °F 44.6 °F 59% 29.99 in 10.0 mi SSW 12.7 mph 20.7 mph N/A   Clear
2:15 PM 60.8 °F 44.6 °F 55% 29.99 in 10.0 mi SSW 18.4 mph - N/A   Partly Cloudy
2:35 PM 59.0 °F 44.6 °F 59% 29.98 in 10.0 mi SSW 16.1 mph 20.7 mph N/A   Partly Cloudy
2:55 PM 60.8 °F 44.6 °F 55% 29.98 in 10.0 mi SSW 13.8 mph - N/A   Clear
3:15 PM 62.6 °F 44.6 °F 52% 29.98 in 10.0 mi SSW 16.1 mph 20.7 mph N/A   Partly Cloudy
3:35 PM 62.6 °F 44.6 °F 52% 29.98 in 10.0 mi SW 15.0 mph 19.6 mph N/A   Partly Cloudy
3:55 PM 62.6 °F 44.6 °F 52% 29.98 in 10.0 mi SSW 12.7 mph 21.9 mph N/A   Scattered Clouds
4:15 PM 62.6 °F 44.6 °F 52% 29.99 in 10.0 mi SSW 10.4 mph - N/A   Mostly Cloudy
4:35 PM 60.8 °F 44.6 °F 55% 29.98 in 10.0 mi SSW 10.4 mph - N/A   Mostly Cloudy
4:55 PM 60.8 °F 44.6 °F 55% 29.98 in 10.0 mi SSW 12.7 mph 17.3 mph N/A   Scattered Clouds
5:15 PM 59.0 °F 44.6 °F 59% 29.98 in 10.0 mi SSW 10.4 mph 18.4 mph N/A   Scattered Clouds
5:35 PM 59.0 °F 44.6 °F 59% 29.99 in 10.0 mi SSW 10.4 mph - N/A   Scattered Clouds
5:55 PM 59.0 °F 44.6 °F 59% 29.99 in 10.0 mi SSW 11.5 mph - N/A   Partly Cloudy
6:15 PM 59.0 °F 44.6 °F 59% 29.98 in 10.0 mi SSW 13.8 mph - N/A   Clear
6:55 PM 57.2 °F 44.6 °F 63% 29.98 in 10.0 mi SSW 12.7 mph - N/A   Clear
7:15 PM 57.2 °F 44.6 °F 63% 29.98 in 10.0 mi SSW 10.4 mph - N/A   Clear
7:35 PM 57.2 °F 44.6 °F 63% 29.98 in 10.0 mi SW 9.2 mph - N/A   Clear
7:55 PM 57.2 °F 44.6 °F 63% 29.98 in 10.0 mi SSW 10.4 mph - N/A   Clear
8:15 PM 57.2 °F 42.8 °F 59% 29.98 in 10.0 mi SSW 9.2 mph - N/A   Partly Cloudy
8:55 PM 57.2 °F 41.0 °F 55% 29.98 in 10.0 mi SSW 9.2 mph 18.4 mph N/A   Clear
9:15 PM 57.2 °F 41.0 °F 55% 29.98 in 10.0 mi SSW 11.5 mph - N/A   Scattered Clouds
9:35 PM 57.2 °F 41.0 °F 55% 29.98 in 10.0 mi South 9.2 mph - N/A   Partly Cloudy
9:55 PM 57.2 °F 41.0 °F 55% 29.98 in 10.0 mi SSE 5.8 mph - N/A   Clear
10:15 PM 57.2 °F 41.0 °F 55% 29.98 in 10.0 mi South 10.4 mph - N/A   Clear
10:35 PM 57.2 °F 41.0 °F 55% 29.98 in 10.0 mi South 10.4 mph - N/A   Clear
10:55 PM 57.2 °F 41.0 °F 55% 29.97 in 10.0 mi SSW 15.0 mph 19.6 mph N/A   Clear
11:35 PM 57.2 °F 39.2 °F 51% 29.97 in 10.0 mi SSW 12.7 mph - N/A   Partly Cloudy
11:55 PM 57.2 °F 39.2 °F 51% 29.96 in 10.0 mi SSW 11.5 mph - N/A   Partly Cloudy